This demonstration page uses our WeatherBlox Daily Observations layout. Learn more.

Left ArrowRight Arrow

Hourly Observations for June 12, 2018

Temp ( °F °C ) Dew Point ( °F °C ) Humidity (%) Winds ( mph kmh ) Pressure ( in mb ) Visibility ( mi km ) Precip ( " mm )
12:53 am 00:53 Clear 64 17.8 61 16.1 90 90 WNW 5 7 29.86 1011 10 16 0.00 0.00
1:53 am 01:53 Clear 65 18.3 62 16.7 90 90 Calm 29.87 1012 10 16 0.00 0.00
3:53 am 03:53 Clear 64 17.8 62 16.7 93 93 NNW 5 7 29.86 1011 9 14 0.00 0.00
4:53 am 04:53 Clear with Mist and Fog 61 16.1 60 15.6 97 97 Calm 29.88 1012 6 10 0.00 0.00
5:53 am 05:53 Clear 61 16.1 60 15.6 97 97 NW 3 6 29.89 1012 8 13 0.00 0.00
6:53 am 06:53 Sunny 62 16.7 60 15.6 93 93 N 8 13 29.90 1013 7 11 0.00 0.00
7:53 am 07:53 Sunny 65 18.3 63 17.2 93 93 NNE 7 11 29.91 1013 10 16 0.00 0.00
8:53 am 08:53 Sunny 70 21.1 65 18.3 84 84 NNE 6 9 29.93 1013 8 13 0.00 0.00
9:53 am 09:53 Sunny 74 23.3 66 18.9 76 76 NE 8 13 29.93 1014 10 16 0.00 0.00
10:53 am 10:53 Sunny 77 25 65 18.3 66 66 N 7 11 29.93 1014 10 16 0.00 0.00
11:53 am 11:53 Sunny 79 26.1 63 17.2 58 58 N 10 17 29.94 1014 10 16 0.00 0.00
12:53 pm 12:53 Sunny 82 27.8 61 16.1 49 49 NNE 10 17 29.95 1014 10 16 0.00 0.00
1:53 pm 13:53 Sunny 83 28.3 60 15.6 46 46 VRB 3 6 29.94 1014 10 16 0.00 0.00
2:53 pm 14:53 Sunny 85 29.4 61 16.1 45 45 Calm 29.93 1014 10 16 0.00 0.00
3:53 pm 15:53 Sunny 86 30 59 15 40 40 NNE 8 13 29.92 1013 10 16 0.00 0.00
4:53 pm 16:53 Sunny 86 30 58 14.4 39 39 Calm 29.92 1013 10 16 0.00 0.00
5:53 pm 17:53 Sunny 86 30 61 16.1 43 43 NE 8 13 29.91 1013 10 16 0.00 0.00
6:53 pm 18:53 Sunny 82 27.8 62 16.7 51 51 NNE 14 22 29.91 1013 10 16 0.00 0.00
7:53 pm 19:53 Sunny 79 26.1 63 17.2 58 58 NE 12 19 29.91 1013 10 16 0.00 0.00
8:53 pm 20:53 Sunny 74 23.3 62 16.7 67 67 ENE 12 19 29.94 1014 10 16 0.00 0.00
9:53 pm 21:53 Clear 71 21.7 62 16.7 73 73 NE 7 11 29.99 1016 10 16 0.00 0.00
10:53 pm 22:53 Clear 69 20.6 61 16.1 76 76 NE 6 9 30.03 1017 10 16 0.00 0.00
11:53 pm 23:53 Clear 68 20 61 16.1 78 78 NE 8 13 30.03 1017 10 16 0.00 0.00

Powered by AerisWeather